Location: Ermatingen
(47.6706°N, 9.0857°E)
Time: 05:45:43
(UTC+00:00)

Cosmos 2082 Rocket - Pass Details

Date: 18 September 2020
Orbit: 834 x 853 km, 71.0° (Epoch: 27 October)

Event Time Altitude Azimuth Distance (km) Brightness Sun altitude
Rises 18:55:33 0° 338° (NNW) 3,393 6.0 -15.1°
Reaches altitude 10° 18:59:44 10° 8° (N) 2,456 4.8 -15.8°
Maximum altitude 19:01:59 12° 32° (NNE) 2,290 4.3 -16.1°
Drops below altitude 10° 19:04:15 10° 56° (NE) 2,454 4.3 -16.5°
Enters shadow 19:04:32 - 58° (ENE) 2,496 4.3 -16.5°
